Location: Britt Chiropractic Center
(43.0966°N, 93.8027°W)
Time: 22:04:48
(UTC+00:00)

Daily predictions for brighter satellites

Satellite Brightness Start Highest point End
(mag) Time Altitude Azimuth Time Altitude Azimuth Time Altitude Azimuth
Cosmos 2221 3.8 12:03:20 10° N 12:07:13 38° ENE 12:11:05 10° SE
Orbus 7S? 4.0 12:08:50 20° N 12:10:01 28° NE 12:12:35 10° E
Meteor 2-20 Rocket 4.2 12:06:06 10° NNW 12:11:46 64° W 12:17:23 10° S
Cosmos 1484 Rocket 2.3 12:09:45 10° N 12:13:09 81° WNW 12:16:31 10° SSW
Cosmos 1758 Rocket 3.5 12:10:16 10° S 12:14:41 88° E 12:19:06 10° N
NOSS 8 (A) 4.2 12:16:23 23° NNW 12:18:05 78° NE 12:21:30 10° SE
Cosmos 1437 Rocket 4.1 12:17:52 10° N 12:21:05 35° ENE 12:24:18 10° SE
IRS-1D 4.2 12:17:04 10° N 12:21:25 30° WNW 12:25:48 10° SW
Helios 1A Rocket 3.2 12:22:07 10° SSW 12:25:06 30° W 12:26:49 19° NW
ISS -0.4 12:23:46 10° SSE 12:25:33 14° SE 12:27:21 10° E
Cosmos 2360 Rocket 2.2 12:23:01 10° NNW 12:28:34 61° WSW 12:34:04 10° S
CZ-2D R/B 4.1 12:29:08 10° NNE 12:32:11 42° E 12:35:12 10° S
ATLAS 3B R/B 4.0 12:25:46 10° NNW 12:33:06 40° NE 12:40:06 10° ESE
Cosmos 1833 4.2 12:28:31 10° SW 12:34:06 64° WNW 12:39:47 10° NNE
[s.n.66867] 4.5 12:33:12 10° S 12:34:35 13° SSE 12:35:57 10° ESE
Cosmos 2333 Rocket 2.8 12:29:53 12° NW 12:34:40 37° WSW 12:39:51 10° S
Cosmos-2242 3.9 12:31:31 11° NNW 12:34:55 27° W 12:38:27 10° SSW
Cosmos 405 Rocket 2.9 12:32:47 10° SW 12:35:47 34° WNW 12:38:49 10° N
[s.n.66865] 4.5 12:34:26 10° S 12:35:52 14° SSE 12:37:17 10° ESE
COSMO-SKYMED 1 3.5 12:32:28 10° SSW 12:35:53 25° W 12:39:12 11° NW
[s.n.66860] 4.5 12:35:04 10° S 12:36:32 14° SSE 12:37:59 10° ESE
Cosmos 1626 Rocket 3.9 12:32:51 10° SSW 12:37:04 44° WNW 12:41:17 10° N
[s.n.66864] 4.5 12:35:41 10° S 12:37:09 14° SSE 12:38:38 10° ESE
[s.n.66863] 4.5 12:36:15 10° S 12:37:45 14° SSE 12:39:15 10° ESE
Cosmos 1707 3.1 12:34:42 10° N 12:37:46 48° E 12:40:48 10° SSE
BREEZE-M DEB (TANK) 4.2 12:35:59 15° NW 12:38:00 33° NNE 12:43:29 10° E
[s.n.66861] 4.5 12:37:03 10° S 12:38:34 14° SSE 12:40:06 10° ESE
Okean 1 4.2 12:36:39 14° NW 12:38:51 23° W 12:41:42 10° SW
[s.n.66862] 4.4 12:37:40 10° S 12:39:13 15° SSE 12:40:46 10° ESE
[s.n.66859] 4.4 12:38:21 10° S 12:39:55 15° SSE 12:41:29 10° ESE
Cosmos 2237 Rocket 4.4 12:36:19 10° N 12:40:08 18° NE 12:43:55 10° E
[s.n.66858] 4.4 12:38:59 10° S 12:40:35 15° SSE 12:42:11 10° ESE
[s.n.66857] 4.4 12:39:34 10° S 12:41:10 15° SSE 12:42:47 10° ESE
[s.n.66856] 4.4 12:40:06 10° S 12:41:43 15° SSE 12:43:21 10° ESE
[s.n.66855] 4.4 12:40:46 10° S 12:42:25 15° SSE 12:44:03 10° ESE
[s.n.66854] 4.4 12:41:20 10° S 12:43:00 16° SSE 12:44:39 10° ESE
[s.n.66853] 4.4 12:42:01 10° SSW 12:43:43 16° SSE 12:45:23 10° ESE
[s.n.66852] 4.4 12:42:46 10° SSW 12:44:28 16° SSE 12:46:10 10° ESE
MOS 1 Rocket 4.3 12:39:11 10° NNE 12:44:29 59° E 12:49:37 10° S
[s.n.66851] 4.4 12:43:17 10° SSW 12:45:00 16° SSE 12:46:42 10° ESE
Cosmos 2219 Rocket 2.2 12:39:33 10° NNW 12:45:13 76° WSW 12:50:49 10° SSE
[s.n.66850] 4.4 12:43:49 10° SSW 12:45:32 16° SSE 12:47:16 10° ESE
SL-4 R/B 1.3 12:42:55 14° NW 12:45:38 84° NNE 12:48:48 10° ESE
[s.n.66849] 4.4 12:44:30 10° SSW 12:46:15 16° SSE 12:48:00 10° ESE
[s.n.66848] 4.4 12:45:01 10° SSW 12:46:47 17° SSE 12:48:33 10° ESE
ARIANE 5 R/B 3.1 12:42:56 10° NNE 12:48:09 66° ESE 12:53:20 10° S
IGS 5A 3.8 12:45:24 10° N 12:49:07 38° WNW 12:52:49 10° SW
Cosmos 2285 Rocket 4.3 12:46:34 10° NNW 12:52:40 49° WSW 12:58:46 10° S
Cosmos 2322 Rocket 2.9 12:47:38 10° NW 12:52:43 34° WSW 12:57:44 10° SSW
Meteor 1-10 Rocket 4.4 12:50:18 10° N 12:56:16 88° W 13:02:12 10° S
SAR-Lupe-4 3.5 12:54:09 10° NNE 12:57:43 90° NE 13:01:17 10° SSW
Meteor 1-19 Rocket 4.3 12:53:41 10° NNW 12:59:31 78° W 13:05:28 10° S
ATLAS 2AS CENTAUR R/B 2.7 12:53:05 10° SW 13:00:08 70° NW 13:07:01 10° NNE
Cosmos 2322 4.2 12:58:44 10° NNW 13:04:23 64° ENE 13:10:00 10° SE
KORONAS-FOTON 3.5 13:02:03 10° NNW 13:05:23 61° W 13:08:42 10° S
Cosmos 2315 Rocket 4.1 13:01:44 10° N 13:08:08 88° E 13:14:25 10° S
Cosmos 1461 2.7 23:06:05 10° SSW 23:09:57 88° WNW 23:13:55 10° NNE
Cosmos 1933 3.9 23:12:17 10° SSE 23:15:44 33° E 23:19:11 10° NNE
Cosmos 1743 2.2 23:13:03 10° N 23:16:17 66° E 23:19:30 10° SSE
Cosmos 1354 Rocket 4.3 23:11:53 10° S 23:16:56 49° ESE 23:21:59 10° NNE
GEOS 3 Rocket 3.7 23:14:21 10° NE 23:19:45 76° SE 23:25:06 10° SSW
Cosmos 1980 Rocket 3.3 23:15:37 10° SSE 23:20:04 25° ESE 23:24:31 10° NE
Okean 1-7 Rocket 3.9 23:17:39 10° N 23:21:50 43° ENE 23:25:59 10° SSE
Cosmos 1602 Rocket 3.5 23:18:09 10° N 23:22:31 66° E 23:26:49 10° SSE
Cosmos 1777 Rocket 4.1 23:17:37 10° SSW 23:22:53 87° WNW 23:28:09 10° NNE
SJ-12 4.4 23:20:16 10° SE 23:23:39 32° ENE 23:27:02 10° N
CORIOLIS 4.1 23:20:27 10° SSE 23:25:43 66° ENE 23:31:01 10° N
YAOGAN 1 4.2 23:24:35 10° E 23:26:41 14° ENE 23:28:46 10° NNE
IRIDIUM 104 4.3 23:22:16 10° N 23:27:28 63° E 23:32:37 10° SSE
Meteor 1-25 Rocket 4.4 23:24:13 10° N 23:29:54 54° ENE 23:35:31 10° SSE
Cosmos 2263 Rocket 3.0 23:27:17 10° N 23:32:11 29° NE 23:37:04 10° ESE
Cosmos 2151 2.9 23:28:48 10° N 23:32:58 83° E 23:37:08 10° S
SAR-Lupe-4 3.9 23:30:09 10° SE 23:33:31 43° ENE 23:36:55 10° N
IGS 5A 3.9 23:31:13 10° S 23:35:07 63° W 23:39:05 10° NNW
SL-16 R/B 3.1 23:29:12 10° N 23:35:18 60° WNW 23:41:21 10° SSW
IRIDIUM 114 4.3 23:31:22 10° N 23:36:37 77° E 23:41:49 10° S
CENTAUR R/B 4.3 23:33:27 10° WNW 23:38:09 22° NNW 23:43:39 10° NNE
Cosmos 1782 4.2 23:34:55 10° SW 23:38:13 34° WNW 23:41:32 10° N
IRS-1C 4.1 23:37:25 10° SSE 23:42:41 67° ENE 23:47:58 10° N
NOSS 2-3 (C) 3.4 23:39:20 10° SSW 23:42:41 46° ESE 23:45:08 17° NE
SAR-Lupe-1 4.2 23:41:07 10° SSE 23:44:37 51° ENE 23:48:08 10° N
IRIDIUM 103 4.4 23:40:31 10° N 23:45:46 88° W 23:51:00 10° S
Cosmos 1953 Rocket 4.2 23:42:21 10° N 23:46:25 34° ENE 23:50:28 10° SE
Cosmos 2227 Rocket 2.2 23:43:46 10° NNW 23:49:23 63° ENE 23:54:58 10° SE
BREEZE-M DEB (TANK) 1.6 23:48:10 10° W 23:49:44 40° NNW 23:50:43 23° NE
Cosmos 2084 Rocket 3.5 23:45:51 10° NW 23:50:04 81° SW 23:54:16 10° SSE
MOS 1 Rocket 3.4 23:47:00 10° SSE 23:51:48 62° ENE 23:56:55 10° N
Cosmos 990 Rocket 3.9 23:48:01 10° SSW 23:53:08 87° ESE 23:58:19 10° NNE
EXPRESS MD2 3.2 23:51:25 10° SSW 23:53:43 39° SE 23:55:08 24° E
Cosmos 1825 Rocket 3.4 23:51:17 10° N 23:55:37 73° E 23:59:54 10° SSE
